EW3219 Weather Reports


time (UTC)temp
C
wind
direction
speed
KPH
gust
KPH
rain 1hr
cm
rain 24hr
cm
rain mn
cm
humidity
%
barometer
mb
20260507140101 14 0.0 0.0 0.00 0.00 0.00 89 1016.3
20260507134544 13 0.0 0.0 0.00 0.00 0.00 89 1016.4
20260507133040 13 0.0 0.0 0.00 0.00 0.00 89 1016.3
20260507131536 13 0.0 0.0 0.00 0.00 0.00 89 1016.2
20260507130030 13 0.0 0.0 0.00 0.00 0.00 90 1016.1
20260507124543 13 0.0 0.0 0.00 0.00 0.00 89 1015.9
20260507123024 13 0.0 0.0 0.00 0.00 0.00 89 1016.0
20260507121517 13 0.0 0.0 0.00 0.00 0.00 89 1015.9
20260507120013 13 0.0 0.0 0.00 0.00 0.00 89 1015.9
20260507114509 13 0.0 0.0 0.00 0.00 0.00 88 1015.7
20260507113009 14 0.0 0.0 0.00 0.00 0.00 88 1015.9
20260507111600 14 0.0 0.0 0.00 0.00 0.00 89 1015.8
20260507110057 15 0.0 0.0 0.00 0.00 0.00 89 1015.8
20260507104556 15 0.0 0.0 0.00 0.00 0.00 88 1016.0
20260507103048 15 0.0 0.0 0.00 0.00 0.00 88 1016.2
20260507101543 15 0.0 0.0 0.00 0.00 0.00 88 1016.2
20260507100039 15 0.0 0.0 0.00 0.00 0.00 88 1016.2
20260507094534 15 0.0 0.0 0.00 0.00 0.00 88 1016.2
20260507093036 15 0.0 0.0 0.00 0.00 0.00 88 1016.4
20260507091536 15 0.0 0.0 0.00 0.00 0.00 88 1016.6
20260507090020 15 0.0 0.0 0.00 0.00 0.00 88 1016.7
20260507084520 15 0.0 0.0 0.00 0.00 0.00 88 1016.8
20260507083012 15 0.0 0.0 0.00 0.00 0.00 87 1017.1
20260507081507 16 0.0 0.0 0.00 0.00 0.00 87 1017.2
20260507080003 16 0.0 0.0 0.00 0.00 0.00 88 1017.2
20260507074612 16 0.0 0.0 0.00 0.00 0.00 87 1017.2
20260507073055 16 0.0 0.0 0.00 0.00 0.00 87 1017.2
20260507071552 16 0.0 0.0 0.00 0.00 0.00 87 1017.3
20260507070104 16 0.0 0.0 0.00 0.00 0.00 87 1017.3
20260507064541 16 0.0 0.0 0.00 0.00 0.00 86 1017.5
20260507063052 16 0.0 0.0 0.00 0.00 0.00 87 1017.5
20260507061534 16 0.0 0.0 0.00 0.00 0.00 87 1017.4
20260507060042 16 0.0 0.0 0.00 0.00 0.00 86 1017.4
20260507054523 16 0.0 0.0 0.00 0.00 0.00 86 1017.5
20260507053020 16 0.0 0.0 0.00 0.00 0.00 85 1017.6
20260507051515 16 0.0 0.0 0.00 0.00 0.00 84 1017.6
20260507050011 17 0.0 0.0 0.00 0.00 0.00 83 1017.5
20260507044506 17 0.0 0.0 0.00 0.00 0.00 82 1017.4
20260507043002 17 0.0 0.0 0.00 0.00 0.00 82 1017.2
20260507041558 17 0.0 0.0 0.00 0.00 0.00 82 1017.4
20260507040055 17 0.0 0.0 0.00 0.00 0.00 82 1017.2
20260507034549 17 0.0 0.0 0.00 0.00 0.00 81 1017.1
20260507033046 17 0.0 0.0 0.00 0.00 0.00 82 1016.9
20260507031540 17 0.0 0.0 0.00 0.00 0.00 82 1016.8
20260507030036 17 0.0 0.0 0.00 0.00 0.00 82 1016.6
20260507024532 17 0.0 0.0 0.00 0.00 0.00 82 1016.3
20260507023027 18 0.0 0.0 0.00 0.00 0.00 82 1016.3
20260507021523 18 0.0 0.0 0.00 0.00 0.00 79 1016.3
20260507020029 18 0.0 0.0 0.00 0.00 0.00 78 1016.2
20260507014514 18 0.0 0.0 0.00 0.00 0.00 78 1016.1
20260507013018 19 0.0 0.0 0.00 0.00 0.00 77 1016.1
20260507011508 19 0.0 0.0 0.00 0.00 0.00 77 1016.3
20260507010002 19 0.0 0.0 0.00 0.00 0.00 75 1016.1
20260507004557 19 0.0 0.0 0.00 0.00 0.00 74 1016.1
20260507003053 19 0.0 0.0 0.00 0.00 0.00 73 1016.0
20260507001552 19 0.0 0.0 0.00 0.00 0.00 74 1016.0
20260507000044 19 0.0 0.0 0.00 0.00 0.00 75 1015.8
20260506234541 19 0.0 0.0 0.00 0.00 0.00 74 1015.9
20260506233053 19 0.0 0.0 0.00 0.00 0.00 74 1015.8
20260506231533 19 0.0 0.0 0.00 0.00 0.00 74 1016.0
20260506230028 19 0.0 0.0 0.00 0.00 0.00 72 1016.1
20260506224522 19 0.0 0.0 0.00 0.00 0.00 72 1016.1
20260506223018 20 0.0 0.0 0.00 0.00 0.00 71 1016.2
20260506221514 19 0.0 0.0 0.00 0.00 0.00 71 1016.2
20260506220018 20 0.0 0.0 0.00 0.00 0.00 70 1016.4
20260506214507 20 0.0 0.0 0.00 0.00 0.00 71 1016.6
20260506213100 20 0.0 0.0 0.00 0.00 0.00 71 1016.7
20260506211609 20 0.0 0.0 0.00 0.00 0.00 71 1016.8
20260506210052 20 0.0 0.0 0.00 0.00 0.00 71 1016.9
20260506204547 20 0.0 0.0 0.00 0.00 0.00 70 1016.9
20260506203043 20 0.0 0.0 0.00 0.00 0.00 72 1016.9
20260506201540 20 0.0 0.0 0.00 0.00 0.00 70 1017.0
20260506200041 20 0.0 0.0 0.00 0.00 0.00 70 1017.0
20260506194530 20 0.0 0.0 0.00 0.00 0.00 70 1017.2
20260506193028 20 0.0 0.0 0.00 0.00 0.00 71 1017.3
20260506191521 20 0.0 0.0 0.00 0.00 0.00 68 1017.4
20260506190017 20 0.0 0.0 0.00 0.00 0.00 73 1017.4
20260506184512 20 0.0 0.0 0.00 0.00 0.00 71 1017.5
20260506183009 20 0.0 0.0 0.00 0.00 0.00 71 1017.7
20260506181505 20 0.0 0.0 0.00 0.00 0.00 71 1018.1
20260506180100 19 0.0 0.0 0.00 0.00 0.00 71 1018.1
20260506174555 19 0.0 0.0 0.00 0.00 0.00 71 1018.2
20260506173104 18 0.0 0.0 0.00 0.00 0.00 71 1018.2
20260506171552 18 0.0 0.0 0.00 0.00 0.00 70 1018.3
20260506170043 18 0.0 0.0 0.00 0.00 0.00 71 1018.3
20260506164551 18 0.0 0.0 0.00 0.00 0.00 71 1018.3
20260506163035 18 0.0 0.0 0.00 0.00 0.00 70 1018.2
20260506161531 17 0.0 0.0 0.00 0.00 0.00 71 1018.2
20260506160024 17 0.0 0.0 0.00 0.00 0.00 72 1018.3
20260506154520 17 0.0 0.0 0.00 0.00 0.00 72 1018.4
20260506153016 17 0.0 0.0 0.00 0.00 0.00 73 1018.5
20260506151512 16 0.0 0.0 0.00 0.00 0.00 74 1018.6
20260506150007 16 0.0 0.0 0.00 0.00 0.00 74 1018.4
20260506144503 15 0.0 0.0 0.00 0.00 0.00 76 1018.3
20260506143059 15 0.0 0.0 0.00 0.00 0.00 78 1018.5
20260506141610 15 0.0 0.0 0.00 0.00 0.00 79 1018.5